| time (UTC) | temp F | wind direction | speed MPH | gust MPH | rain 1hr in | rain 24hr in | rain mn in | humidity % | barometer mb |
| 20260906075503 | 72 | 0 | 0.0 | 1.0 | 0.00 | 0.11 | 0.00 | 92 | 1012.0 |
| 20260906075004 | 72 | 0 | 0.0 | 1.0 | 0.00 | 0.11 | 0.00 | 92 | 1011.9 |
| 20260906074503 | 72 | 0 | 0.0 | 1.0 | 0.00 | 0.11 | 0.00 | 92 | 1011.9 |
| 20260906074003 | 72 | 0 | 0.0 | 1.0 | 0.00 | 0.11 | 0.00 | 92 | 1011.9 |
| 20260906073503 | 72 | 0 | 0.0 | 1.0 | 0.00 | 0.11 | 0.00 | 92 | 1011.9 |
| 20260906073003 | 73 | 0 | 0.0 | 1.0 | 0.00 | 0.11 | 0.00 | 92 | 1011.8 |
| 20260906072503 | 72 | 146 | 1.0 | 1.0 | 0.00 | 0.11 | 0.00 | 92 | 1011.8 |
| 20260906072003 | 72 | 152 | 1.0 | 1.0 | 0.00 | 0.11 | 0.00 | 92 | 1011.9 |
| 20260906071712 | 72 | 0 | 0.0 | 1.0 | 0.00 | 0.11 | 0.00 | 92 | 1012.0 |
| 20260906071215 | 72 | 0 | 0.0 | 1.0 | 0.00 | 0.11 | 0.00 | 92 | 1011.9 |
| 20260906070503 | 72 | 0 | 0.0 | 1.0 | 0.00 | 0.11 | 0.00 | 92 | 1012.0 |
| 20260906070216 | 72 | 0 | 0.0 | 1.0 | 0.00 | 0.11 | 0.00 | 92 | 1012.1 |
| 20260906065503 | 72 | 0 | 0.0 | 1.0 | 0.00 | 0.11 | 0.00 | 92 | 1012.3 |
| 20260906065003 | 72 | 0 | 0.0 | 1.0 | 0.00 | 0.11 | 0.00 | 91 | 1012.2 |
| 20260906064503 | 72 | 0 | 0.0 | 2.0 | 0.00 | 0.11 | 0.00 | 92 | 1012.3 |
| 20260906064003 | 72 | 0 | 0.0 | 2.0 | 0.00 | 0.11 | 0.00 | 92 | 1012.3 |
| 20260906063503 | 72 | 0 | 0.0 | 1.0 | 0.00 | 0.11 | 0.00 | 92 | 1012.3 |
| 20260906063003 | 72 | 0 | 0.0 | 1.0 | 0.00 | 0.11 | 0.00 | 92 | 1012.4 |
| 20260906062503 | 72 | 0 | 0.0 | 0.0 | 0.00 | 0.11 | 0.00 | 92 | 1012.4 |
| 20260906062003 | 72 | 0 | 0.0 | 0.0 | 0.00 | 0.11 | 0.00 | 92 | 1012.5 |
| 20260906061503 | 72 | 0 | 0.0 | 1.0 | 0.00 | 0.11 | 0.00 | 92 | 1012.6 |
| 20260906061216 | 72 | 0 | 0.0 | 1.0 | 0.00 | 0.11 | 0.00 | 91 | 1012.6 |
| 20260906060503 | 72 | 0 | 0.0 | 1.0 | 0.00 | 0.11 | 0.00 | 92 | 1012.5 |
| 20260906060004 | 72 | 0 | 0.0 | 1.0 | 0.00 | 0.11 | 0.00 | 92 | 1012.5 |
| 20260906055715 | 72 | 0 | 0.0 | 1.0 | 0.00 | 0.11 | 0.00 | 92 | 1012.5 |
| 20260906055003 | 72 | 0 | 0.0 | 2.0 | 0.00 | 0.11 | 0.00 | 91 | 1012.7 |
| 20260906054503 | 72 | 0 | 0.0 | 2.0 | 0.00 | 0.11 | 0.00 | 91 | 1012.8 |
| 20260906054003 | 72 | 0 | 0.0 | 1.0 | 0.00 | 0.11 | 0.00 | 92 | 1012.8 |
| 20260906053717 | 72 | 0 | 0.0 | 1.0 | 0.00 | 0.11 | 0.00 | 92 | 1012.9 |
| 20260906053215 | 72 | 0 | 0.0 | 1.0 | 0.00 | 0.11 | 0.00 | 91 | 1013.1 |
| 20260906052503 | 72 | 0 | 0.0 | 1.0 | 0.00 | 0.11 | 0.00 | 91 | 1013.0 |
| 20260906052003 | 73 | 0 | 0.0 | 2.0 | 0.00 | 0.11 | 0.00 | 91 | 1013.0 |
| 20260906051503 | 73 | 0 | 0.0 | 2.0 | 0.00 | 0.11 | 0.00 | 91 | 1013.1 |
| 20260906051217 | 73 | 0 | 0.0 | 2.0 | 0.00 | 0.11 | 0.00 | 91 | 1013.2 |
| 20260906050503 | 73 | 0 | 0.0 | 2.0 | 0.00 | 0.11 | 0.00 | 91 | 1013.2 |
| 20260906050003 | 73 | 0 | 0.0 | 2.0 | 0.00 | 0.11 | 0.00 | 91 | 1013.2 |
| 20260906045503 | 73 | 0 | 0.0 | 1.0 | 0.00 | 0.11 | 0.00 | 92 | 1013.2 |
| 20260906045004 | 73 | 0 | 0.0 | 1.0 | 0.00 | 0.11 | 0.00 | 92 | 1013.2 |
| 20260906044503 | 73 | 0 | 0.0 | 1.0 | 0.00 | 0.11 | 0.00 | 91 | 1013.2 |
| 20260906044003 | 73 | 0 | 0.0 | 1.0 | 0.00 | 0.11 | 0.00 | 91 | 1013.3 |
| 20260906043503 | 73 | 0 | 0.0 | 1.0 | 0.00 | 0.11 | 0.00 | 91 | 1013.4 |
| 20260906043003 | 73 | 0 | 0.0 | 1.0 | 0.00 | 0.11 | 0.00 | 91 | 1013.5 |
| 20260906042503 | 73 | 0 | 0.0 | 1.0 | 0.00 | 0.11 | 0.00 | 91 | 1013.5 |
| 20260906042003 | 73 | 0 | 0.0 | 1.0 | 0.00 | 0.11 | 0.00 | 91 | 1013.5 |
| 20260906041503 | 73 | 0 | 0.0 | 0.0 | 0.00 | 0.11 | 0.00 | 91 | 1013.5 |
| 20260906041003 | 73 | 0 | 0.0 | 1.0 | 0.00 | 0.11 | 0.00 | 91 | 1013.5 |
| 20260906040503 | 73 | 0 | 0.0 | 1.0 | 0.00 | 0.11 | 0.00 | 91 | 1013.5 |
| 20260906040015 | 73 | 0 | 0.0 | 1.0 | 0.00 | 0.11 | 0.00 | 91 | 1013.5 |
| 20260906035503 | 73 | 0 | 0.0 | 1.0 | 0.00 | 0.11 | 0.11 | 91 | 1013.5 |
| 20260906035003 | 73 | 0 | 0.0 | 1.0 | 0.00 | 0.11 | 0.11 | 91 | 1013.5 |
| 20260906034503 | 74 | 0 | 0.0 | 1.0 | 0.00 | 0.11 | 0.11 | 91 | 1013.5 |
| 20260906034003 | 74 | 0 | 0.0 | 1.0 | 0.00 | 0.11 | 0.11 | 91 | 1013.7 |
| 20260906033503 | 74 | 0 | 0.0 | 1.0 | 0.00 | 0.11 | 0.11 | 91 | 1013.6 |
| 20260906033004 | 74 | 0 | 0.0 | 1.0 | 0.00 | 0.11 | 0.11 | 91 | 1013.7 |
| 20260906032503 | 74 | 0 | 0.0 | 1.0 | 0.00 | 0.11 | 0.11 | 91 | 1013.7 |
| 20260906032217 | 74 | 0 | 0.0 | 1.0 | 0.00 | 0.11 | 0.11 | 91 | 1013.7 |
| 20260906031503 | 74 | 0 | 0.0 | 1.0 | 0.00 | 0.11 | 0.11 | 91 | 1013.6 |
| 20260906031003 | 74 | 0 | 0.0 | 2.0 | 0.00 | 0.11 | 0.11 | 91 | 1013.6 |
| 20260906030503 | 74 | 0 | 0.0 | 2.0 | 0.00 | 0.11 | 0.11 | 91 | 1013.6 |
| 20260906030004 | 74 | 0 | 0.0 | 1.0 | 0.00 | 0.11 | 0.11 | 91 | 1013.5 |
| 20260906025717 | 74 | 0 | 0.0 | 1.0 | 0.00 | 0.11 | 0.11 | 91 | 1013.5 |
| 20260906025005 | 74 | 0 | 0.0 | 2.0 | 0.00 | 0.11 | 0.11 | 91 | 1013.6 |
| 20260906024504 | 74 | 0 | 0.0 | 2.0 | 0.00 | 0.11 | 0.11 | 91 | 1013.7 |
| 20260906024003 | 74 | 0 | 0.0 | 1.0 | 0.00 | 0.11 | 0.11 | 91 | 1013.6 |
| 20260906023503 | 74 | 0 | 0.0 | 1.0 | 0.00 | 0.11 | 0.11 | 91 | 1013.5 |
| 20260906023003 | 74 | 156 | 1.0 | 2.0 | 0.00 | 0.11 | 0.11 | 91 | 1013.5 |
| 20260906022715 | 74 | 162 | 1.0 | 2.0 | 0.00 | 0.11 | 0.11 | 91 | 1013.4 |
| 20260906022003 | 74 | 154 | 1.0 | 2.0 | 0.00 | 0.11 | 0.11 | 91 | 1013.5 |
| 20260906021503 | 74 | 152 | 1.0 | 2.0 | 0.00 | 0.11 | 0.11 | 91 | 1013.4 |
| 20260906021003 | 74 | 0 | 0.0 | 1.0 | 0.00 | 0.11 | 0.11 | 91 | 1013.3 |
| 20260906020503 | 74 | 0 | 0.0 | 1.0 | 0.00 | 0.11 | 0.11 | 91 | 1013.3 |
| 20260906020214 | 74 | 0 | 0.0 | 1.0 | 0.00 | 0.11 | 0.11 | 91 | 1013.3 |
| 20260906015503 | 75 | 0 | 0.0 | 1.0 | 0.00 | 0.11 | 0.11 | 91 | 1013.1 |
| 20260906015215 | 75 | 0 | 0.0 | 1.0 | 0.00 | 0.11 | 0.11 | 91 | 1013.1 |
| 20260906014503 | 75 | 0 | 0.0 | 1.0 | 0.00 | 0.11 | 0.11 | 91 | 1013.2 |
| 20260906014003 | 75 | 0 | 0.0 | 1.0 | 0.00 | 0.11 | 0.11 | 90 | 1013.1 |
| 20260906013503 | 75 | 0 | 0.0 | 1.0 | 0.00 | 0.11 | 0.11 | 91 | 1013.1 |
| 20260906013003 | 75 | 0 | 0.0 | 1.0 | 0.00 | 0.11 | 0.11 | 90 | 1013.0 |
| 20260906012505 | 75 | 0 | 0.0 | 1.0 | 0.00 | 0.11 | 0.11 | 90 | 1012.9 |
| 20260906012003 | 75 | 0 | 0.0 | 1.0 | 0.00 | 0.11 | 0.11 | 90 | 1012.9 |
| 20260906011503 | 75 | 0 | 0.0 | 1.0 | 0.00 | 0.11 | 0.11 | 91 | 1012.8 |
| 20260906011003 | 75 | 0 | 0.0 | 1.0 | 0.00 | 0.11 | 0.11 | 90 | 1012.8 |
| 20260906010717 | 75 | 0 | 0.0 | 1.0 | 0.00 | 0.11 | 0.11 | 90 | 1012.9 |
| 20260906010003 | 76 | 0 | 0.0 | 2.0 | 0.00 | 0.11 | 0.11 | 91 | 1012.8 |
| 20260906005503 | 76 | 0 | 0.0 | 2.0 | 0.00 | 0.11 | 0.11 | 90 | 1012.7 |
| 20260906005003 | 76 | 0 | 0.0 | 2.0 | 0.00 | 0.11 | 0.11 | 90 | 1012.7 |
| 20260906004503 | 76 | 0 | 0.0 | 2.0 | 0.00 | 0.11 | 0.11 | 90 | 1012.8 |
| 20260906004003 | 76 | 0 | 0.0 | 2.0 | 0.00 | 0.11 | 0.11 | 90 | 1012.7 |
| 20260906003503 | 76 | 0 | 0.0 | 2.0 | 0.00 | 0.11 | 0.11 | 90 | 1012.5 |
| 20260906003004 | 76 | 0 | 0.0 | 1.0 | 0.00 | 0.11 | 0.11 | 90 | 1012.6 |
| 20260906002503 | 76 | 0 | 0.0 | 1.0 | 0.00 | 0.11 | 0.11 | 90 | 1012.6 |
| 20260906002003 | 76 | 138 | 1.0 | 2.0 | 0.00 | 0.11 | 0.11 | 90 | 1012.6 |
| 20260906001503 | 76 | 0 | 0.0 | 2.0 | 0.00 | 0.11 | 0.11 | 90 | 1012.5 |
| 20260906001003 | 76 | 150 | 1.0 | 2.0 | 0.00 | 0.11 | 0.11 | 90 | 1012.4 |
| 20260906000503 | 76 | 0 | 0.0 | 2.0 | 0.00 | 0.11 | 0.11 | 90 | 1012.4 |
| 20260906000004 | 76 | 0 | 0.0 | 1.0 | 0.00 | 0.11 | 0.11 | 90 | 1012.4 |
| 20260905235503 | 76 | 0 | 0.0 | 1.0 | 0.00 | 0.11 | 0.11 | 89 | 1012.4 |
| 20260905235003 | 77 | 0 | 0.0 | 2.0 | 0.00 | 0.11 | 0.11 | 89 | 1012.4 |
| 20260905234503 | 77 | 0 | 0.0 | 2.0 | 0.00 | 0.11 | 0.11 | 89 | 1012.4 |
| 20260905234003 | 77 | 0 | 0.0 | 2.0 | 0.00 | 0.11 | 0.11 | 89 | 1012.3 |
| 20260905233503 | 77 | 0 | 0.0 | 2.0 | 0.00 | 0.11 | 0.11 | 89 | 1012.2 |
| 20260905233003 | 77 | 0 | 0.0 | 2.0 | 0.00 | 0.11 | 0.11 | 89 | 1012.3 |
| 20260905232503 | 77 | 0 | 0.0 | 2.0 | 0.00 | 0.11 | 0.11 | 88 | 1012.1 |
| 20260905232214 | 77 | 0 | 0.0 | 2.0 | 0.00 | 0.11 | 0.11 | 88 | 1012.1 |
| 20260905231503 | 78 | 0 | 0.0 | 2.0 | 0.00 | 0.11 | 0.11 | 88 | 1012.0 |
| 20260905231003 | 78 | 0 | 0.0 | 2.0 | 0.00 | 0.11 | 0.11 | 88 | 1012.2 |
| 20260905230503 | 78 | 166 | 1.0 | 2.0 | 0.00 | 0.11 | 0.11 | 88 | 1012.3 |
| 20260905230003 | 78 | 173 | 1.0 | 2.0 | 0.00 | 0.11 | 0.11 | 88 | 1012.1 |
| 20260905225503 | 78 | 173 | 1.0 | 2.0 | 0.00 | 0.11 | 0.11 | 88 | 1012.2 |
| 20260905225003 | 78 | 168 | 1.0 | 2.0 | 0.00 | 0.11 | 0.11 | 88 | 1012.2 |
| 20260905224503 | 79 | 168 | 1.0 | 2.0 | 0.00 | 0.11 | 0.11 | 88 | 1012.0 |
| 20260905224003 | 79 | 0 | 0.0 | 2.0 | 0.00 | 0.11 | 0.11 | 88 | 1011.9 |
| 20260905223503 | 79 | 0 | 0.0 | 3.0 | 0.00 | 0.11 | 0.11 | 88 | 1011.8 |
| 20260905223003 | 79 | 157 | 1.0 | 3.0 | 0.00 | 0.11 | 0.11 | 88 | 1011.7 |
| 20260905222717 | 79 | 158 | 1.0 | 2.0 | 0.00 | 0.11 | 0.11 | 89 | 1011.7 |
| 20260905222003 | 78 | 159 | 1.0 | 2.0 | 0.00 | 0.11 | 0.11 | 90 | 1011.6 |
| 20260905221503 | 78 | 165 | 1.0 | 2.0 | 0.00 | 0.11 | 0.11 | 90 | 1011.8 |
| 20260905221003 | 78 | 160 | 1.0 | 2.0 | 0.00 | 0.11 | 0.11 | 90 | 1011.9 |
| 20260905220503 | 78 | 158 | 1.0 | 2.0 | 0.00 | 0.11 | 0.11 | 90 | 1011.8 |
| 20260905220004 | 78 | 0 | 0.0 | 2.0 | 0.00 | 0.11 | 0.11 | 89 | 1011.7 |
| 20260905215503 | 78 | 0 | 0.0 | 3.0 | 0.00 | 0.11 | 0.11 | 90 | 1011.8 |
| 20260905215003 | 78 | 0 | 0.0 | 3.0 | 0.00 | 0.11 | 0.11 | 89 | 1011.9 |
| 20260905214503 | 78 | 157 | 1.0 | 2.0 | 0.00 | 0.11 | 0.11 | 90 | 1012.1 |
| 20260905214003 | 78 | 149 | 1.0 | 2.0 | 0.00 | 0.11 | 0.11 | 90 | 1012.3 |
| 20260905213503 | 78 | 144 | 1.0 | 2.0 | 0.00 | 0.11 | 0.11 | 90 | 1012.4 |
| 20260905213003 | 77 | 151 | 1.0 | 2.0 | 0.00 | 0.11 | 0.11 | 90 | 1012.6 |
| 20260905212503 | 77 | 0 | 0.0 | 2.0 | 0.00 | 0.11 | 0.11 | 90 | 1012.6 |
| 20260905212003 | 77 | 0 | 0.0 | 2.0 | 0.00 | 0.11 | 0.11 | 91 | 1012.8 |
| 20260905211503 | 77 | 129 | 1.0 | 2.0 | 0.00 | 0.11 | 0.11 | 90 | 1012.8 |
| 20260905211003 | 77 | 85 | 1.0 | 2.0 | 0.00 | 0.11 | 0.11 | 90 | 1012.7 |
| 20260905210503 | 77 | 0 | 0.0 | 2.0 | 0.00 | 0.11 | 0.11 | 91 | 1012.9 |
| 20260905210004 | 76 | 160 | 1.0 | 2.0 | 0.00 | 0.11 | 0.11 | 90 | 1013.0 |
| 20260905205503 | 76 | 151 | 1.0 | 2.0 | 0.00 | 0.11 | 0.11 | 90 | 1012.9 |
| 20260905205003 | 76 | 101 | 1.0 | 2.0 | 0.00 | 0.11 | 0.11 | 90 | 1012.8 |
| 20260905204716 | 76 | 126 | 1.0 | 2.0 | 0.00 | 0.11 | 0.11 | 90 | 1012.8 |
| 20260905204003 | 76 | 153 | 1.0 | 2.0 | 0.00 | 0.11 | 0.11 | 90 | 1012.5 |
| 20260905203503 | 76 | 157 | 1.0 | 2.0 | 0.00 | 0.11 | 0.11 | 89 | 1012.5 |
| 20260905203004 | 76 | 156 | 1.0 | 2.0 | 0.00 | 0.11 | 0.11 | 89 | 1012.4 |
| 20260905202503 | 76 | 0 | 0.0 | 2.0 | 0.00 | 0.11 | 0.11 | 90 | 1012.4 |
| 20260905202003 | 76 | 0 | 0.0 | 2.0 | 0.00 | 0.11 | 0.11 | 90 | 1012.6 |
| 20260905201714 | 76 | 118 | 1.0 | 2.0 | 0.00 | 0.11 | 0.11 | 90 | 1012.6 |
| 20260905201003 | 76 | 77 | 1.0 | 2.0 | 0.00 | 0.11 | 0.11 | 89 | 1012.5 |
| 20260905200503 | 76 | 20 | 1.0 | 2.0 | 0.00 | 0.11 | 0.11 | 89 | 1012.7 |
| 20260905200003 | 76 | 348 | 1.0 | 4.0 | 0.00 | 0.11 | 0.11 | 90 | 1012.9 |
| 20260905195503 | 76 | 20 | 1.0 | 4.0 | 0.00 | 0.11 | 0.11 | 90 | 1013.0 |
| 20260905195004 | 76 | 23 | 1.0 | 4.0 | 0.02 | 0.11 | 0.11 | 90 | 1013.1 |
| 20260905194717 | 75 | 17 | 1.0 | 4.0 | 0.03 | 0.11 | 0.11 | 90 | 1013.1 |
| 20260905194003 | 75 | 63 | 1.0 | 2.0 | 0.11 | 0.11 | 0.11 | 89 | 1013.0 |
| 20260905193503 | 75 | 354 | 1.0 | 2.0 | 0.11 | 0.11 | 0.11 | 89 | 1013.1 |
| 20260905193003 | 75 | 10 | 1.0 | 2.0 | 0.11 | 0.11 | 0.11 | 89 | 1012.8 |
| 20260905192503 | 75 | 48 | 1.0 | 2.0 | 0.11 | 0.11 | 0.11 | 89 | 1012.8 |
| 20260905192217 | 75 | 84 | 1.0 | 2.0 | 0.11 | 0.11 | 0.11 | 89 | 1012.7 |
| 20260905191715 | 75 | 110 | 1.0 | 2.0 | 0.11 | 0.11 | 0.11 | 89 | 1012.5 |
| 20260905191003 | 75 | 148 | 1.0 | 3.0 | 0.11 | 0.11 | 0.11 | 88 | 1012.4 |
| 20260905190503 | 75 | 159 | 1.0 | 3.0 | 0.11 | 0.11 | 0.11 | 87 | 1012.4 |
| 20260905190004 | 76 | 147 | 2.0 | 3.0 | 0.11 | 0.11 | 0.11 | 86 | 1012.4 |
| 20260905185503 | 77 | 139 | 2.0 | 4.0 | 0.11 | 0.11 | 0.11 | 84 | 1012.8 |
| 20260905185003 | 79 | 30 | 2.0 | 9.0 | 0.09 | 0.09 | 0.09 | 80 | 1013.0 |
| 20260905184718 | 80 | 354 | 2.0 | 9.0 | 0.08 | 0.08 | 0.09 | 78 | 1013.2 |
| 20260905184215 | 83 | 358 | 4.0 | 11.0 | 0.02 | 0.02 | 0.02 | 71 | 1013.8 |
| 20260905183714 | 87 | 4 | 5.0 | 18.0 | 0.00 | 0.00 | 0.00 | 65 | 1014.2 |
| 20260905183003 | 92 | 33 | 2.0 | 18.0 | 0.00 | 0.00 | 0.00 | 59 | 1013.9 |
| 20260905182714 | 93 | 18 | 1.0 | 4.0 | 0.00 | 0.00 | 0.00 | 61 | 1013.2 |
| 20260905182212 | 93 | 154 | 1.0 | 2.0 | 0.00 | 0.00 | 0.00 | 63 | 1012.6 |
| 20260905181503 | 94 | 163 | 1.0 | 2.0 | 0.00 | 0.00 | 0.00 | 63 | 1012.2 |
| 20260905181003 | 94 | 155 | 1.0 | 3.0 | 0.00 | 0.00 | 0.00 | 61 | 1012.5 |
| 20260905180716 | 95 | 149 | 1.0 | 4.0 | 0.00 | 0.00 | 0.00 | 58 | 1012.6 |
| 20260905180003 | 96 | 134 | 1.0 | 4.0 | 0.00 | 0.00 | 0.00 | 57 | 1012.8 |
| 20260905175503 | 96 | 148 | 1.0 | 2.0 | 0.00 | 0.00 | 0.00 | 55 | 1012.9 |
| 20260905175003 | 96 | 153 | 1.0 | 3.0 | 0.00 | 0.00 | 0.00 | 55 | 1013.1 |
| 20260905174503 | 96 | 123 | 1.0 | 3.0 | 0.00 | 0.00 | 0.00 | 55 | 1013.2 |
| 20260905174003 | 96 | 58 | 1.0 | 3.0 | 0.00 | 0.00 | 0.00 | 58 | 1013.3 |
| 20260905173503 | 96 | 19 | 2.0 | 5.0 | 0.00 | 0.00 | 0.00 | 55 | 1013.3 |
| 20260905173003 | 97 | 32 | 2.0 | 5.0 | 0.00 | 0.00 | 0.00 | 54 | 1013.3 |
| 20260905172503 | 97 | 42 | 2.0 | 4.0 | 0.00 | 0.00 | 0.00 | 54 | 1013.5 |
| 20260905172003 | 97 | 22 | 1.0 | 4.0 | 0.00 | 0.00 | 0.00 | 55 | 1013.6 |
| 20260905171503 | 96 | 76 | 1.0 | 4.0 | 0.00 | 0.00 | 0.00 | 58 | 1013.7 |
| 20260905171214 | 96 | 24 | 1.0 | 5.0 | 0.00 | 0.00 | 0.00 | 57 | 1013.8 |
| 20260905170503 | 96 | 20 | 1.0 | 5.0 | 0.00 | 0.00 | 0.00 | 57 | 1013.9 |
| 20260905170003 | 95 | 53 | 1.0 | 4.0 | 0.00 | 0.00 | 0.00 | 57 | 1013.9 |
| 20260905165713 | 95 | 66 | 1.0 | 4.0 | 0.00 | 0.00 | 0.00 | 56 | 1013.9 |
| 20260905165216 | 95 | 111 | 2.0 | 4.0 | 0.00 | 0.00 | 0.00 | 56 | 1013.9 |
| 20260905164503 | 95 | 44 | 2.0 | 6.0 | 0.00 | 0.00 | 0.00 | 59 | 1014.0 |
| 20260905164003 | 96 | 8 | 2.0 | 6.0 | 0.00 | 0.00 | 0.00 | 59 | 1014.2 |
| 20260905163503 | 96 | 360 | 2.0 | 6.0 | 0.00 | 0.00 | 0.00 | 56 | 1014.3 |
| 20260905163003 | 95 | 359 | 2.0 | 6.0 | 0.00 | 0.00 | 0.00 | 59 | 1014.4 |
| 20260905162503 | 95 | 12 | 2.0 | 6.0 | 0.00 | 0.00 | 0.00 | 57 | 1014.4 |
| 20260905162003 | 95 | 12 | 2.0 | 4.0 | 0.00 | 0.00 | 0.00 | 59 | 1014.4 |
| 20260905161503 | 94 | 4 | 2.0 | 5.0 | 0.00 | 0.00 | 0.00 | 58 | 1014.5 |
| 20260905161003 | 94 | 59 | 1.0 | 5.0 | 0.00 | 0.00 | 0.00 | 57 | 1014.4 |
| 20260905160505 | 94 | 54 | 1.0 | 4.0 | 0.00 | 0.00 | 0.00 | 62 | 1014.5 |
| 20260905160003 | 93 | 29 | 1.0 | 4.0 | 0.00 | 0.00 | 0.00 | 60 | 1014.5 |
| 20260905155503 | 93 | 96 | 1.0 | 4.0 | 0.00 | 0.00 | 0.00 | 65 | 1014.5 |
| 20260905155003 | 93 | 151 | 1.0 | 3.0 | 0.00 | 0.00 | 0.00 | 65 | 1014.6 |
| 20260905154503 | 92 | 64 | 1.0 | 3.0 | 0.00 | 0.00 | 0.00 | 68 | 1014.6 |
| 20260905154003 | 92 | 72 | 1.0 | 3.0 | 0.00 | 0.00 | 0.00 | 69 | 1014.7 |
| 20260905153503 | 92 | 152 | 1.0 | 3.0 | 0.00 | 0.00 | 0.00 | 67 | 1014.6 |
| 20260905153214 | 92 | 149 | 1.0 | 5.0 | 0.00 | 0.00 | 0.00 | 66 | 1014.6 |
| 20260905152503 | 91 | 156 | 1.0 | 5.0 | 0.00 | 0.00 | 0.00 | 68 | 1014.7 |
| 20260905152003 | 91 | 154 | 1.0 | 2.0 | 0.00 | 0.00 | 0.00 | 69 | 1014.6 |
| 20260905151712 | 91 | 144 | 1.0 | 4.0 | 0.00 | 0.00 | 0.00 | 71 | 1014.6 |
| 20260905151003 | 90 | 134 | 1.0 | 4.0 | 0.00 | 0.00 | 0.00 | 71 | 1014.7 |
| 20260905150505 | 89 | 149 | 1.0 | 2.0 | 0.00 | 0.00 | 0.00 | 74 | 1014.7 |
| 20260905150004 | 89 | 136 | 1.0 | 3.0 | 0.00 | 0.00 | 0.00 | 76 | 1014.7 |
| 20260905145503 | 88 | 71 | 1.0 | 4.0 | 0.00 | 0.00 | 0.00 | 77 | 1014.7 |
| 20260905145003 | 87 | 7 | 2.0 | 4.0 | 0.00 | 0.00 | 0.00 | 77 | 1014.8 |
| 20260905144715 | 87 | 358 | 2.0 | 4.0 | 0.00 | 0.00 | 0.00 | 78 | 1014.8 |
| 20260905144003 | 86 | 3 | 1.0 | 4.0 | 0.00 | 0.00 | 0.00 | 81 | 1014.8 |
| 20260905143503 | 85 | 115 | 1.0 | 2.0 | 0.00 | 0.00 | 0.00 | 81 | 1014.6 |
| 20260905143003 | 84 | 125 | 1.0 | 2.0 | 0.00 | 0.00 | 0.00 | 81 | 1014.7 |
| 20260905142503 | 84 | 84 | 1.0 | 4.0 | 0.00 | 0.00 | 0.00 | 82 | 1014.7 |
| 20260905142216 | 84 | 83 | 1.0 | 4.0 | 0.00 | 0.00 | 0.00 | 82 | 1014.8 |
| 20260905141503 | 83 | 130 | 1.0 | 2.0 | 0.00 | 0.00 | 0.00 | 82 | 1014.9 |
| 20260905141003 | 82 | 158 | 1.0 | 2.0 | 0.00 | 0.00 | 0.00 | 84 | 1014.9 |
| 20260905140503 | 82 | 0 | 0.0 | 2.0 | 0.00 | 0.00 | 0.00 | 84 | 1014.9 |
| 20260905140217 | 82 | 0 | 0.0 | 3.0 | 0.00 | 0.00 | 0.00 | 84 | 1015.0 |
| 20260905135503 | 81 | 0 | 0.0 | 3.0 | 0.00 | 0.00 | 0.00 | 84 | 1014.9 |
| 20260905135003 | 80 | 0 | 0.0 | 2.0 | 0.00 | 0.00 | 0.00 | 85 | 1014.9 |
| 20260905134504 | 80 | 0 | 0.0 | 2.0 | 0.00 | 0.00 | 0.00 | 86 | 1014.9 |
| 20260905134003 | 80 | 0 | 0.0 | 2.0 | 0.00 | 0.00 | 0.00 | 86 | 1015.0 |
| 20260905133503 | 79 | 0 | 0.0 | 1.0 | 0.00 | 0.00 | 0.00 | 86 | 1015.1 |
| 20260905133003 | 79 | 0 | 0.0 | 1.0 | 0.00 | 0.00 | 0.00 | 87 | 1015.0 |
| 20260905132503 | 78 | 0 | 0.0 | 2.0 | 0.00 | 0.00 | 0.00 | 87 | 1015.0 |
| 20260905132003 | 78 | 0 | 0.0 | 2.0 | 0.00 | 0.00 | 0.00 | 88 | 1014.9 |
| 20260905131503 | 78 | 0 | 0.0 | 2.0 | 0.00 | 0.00 | 0.00 | 88 | 1015.0 |
| 20260905131003 | 77 | 0 | 0.0 | 2.0 | 0.00 | 0.00 | 0.00 | 88 | 1014.9 |
| 20260905130503 | 77 | 0 | 0.0 | 1.0 | 0.00 | 0.00 | 0.00 | 89 | 1015.0 |
| 20260905130004 | 76 | 0 | 0.0 | 1.0 | 0.00 | 0.00 | 0.00 | 89 | 1015.0 |
| 20260905125503 | 76 | 0 | 0.0 | 1.0 | 0.00 | 0.00 | 0.00 | 90 | 1015.0 |
| 20260905125009 | 76 | 0 | 0.0 | 1.0 | 0.00 | 0.00 | 0.00 | 90 | 1015.1 |
| 20260905124503 | 76 | 0 | 0.0 | 1.0 | 0.00 | 0.00 | 0.00 | 91 | 1015.2 |
| 20260905124003 | 76 | 0 | 0.0 | 1.0 | 0.00 | 0.00 | 0.00 | 91 | 1015.2 |
| 20260905123503 | 75 | 0 | 0.0 | 1.0 | 0.00 | 0.00 | 0.00 | 91 | 1015.1 |
| 20260905123003 | 75 | 0 | 0.0 | 1.0 | 0.00 | 0.00 | 0.00 | 91 | 1015.1 |
| 20260905122503 | 75 | 0 | 0.0 | 1.0 | 0.00 | 0.00 | 0.00 | 91 | 1015.1 |
| 20260905122003 | 75 | 0 | 0.0 | 1.0 | 0.00 | 0.00 | 0.00 | 91 | 1015.1 |
| 20260905121503 | 75 | 0 | 0.0 | 1.0 | 0.00 | 0.00 | 0.00 | 91 | 1015.0 |
| 20260905121003 | 74 | 0 | 0.0 | 1.0 | 0.00 | 0.00 | 0.00 | 91 | 1015.1 |
| 20260905120503 | 74 | 0 | 0.0 | 1.0 | 0.00 | 0.00 | 0.00 | 91 | 1015.1 |
| 20260905120218 | 74 | 0 | 0.0 | 1.0 | 0.00 | 0.00 | 0.00 | 91 | 1015.1 |
| 20260905115503 | 74 | 0 | 0.0 | 1.0 | 0.00 | 0.00 | 0.00 | 91 | 1015.0 |
| 20260905115003 | 74 | 0 | 0.0 | 1.0 | 0.00 | 0.00 | 0.00 | 91 | 1015.1 |
| 20260905114717 | 74 | 0 | 0.0 | 1.0 | 0.00 | 0.00 | 0.00 | 91 | 1015.0 |
| 20260905114003 | 74 | 0 | 0.0 | 1.0 | 0.00 | 0.00 | 0.00 | 91 | 1014.9 |
| 20260905113503 | 74 | 0 | 0.0 | 1.0 | 0.00 | 0.00 | 0.00 | 91 | 1014.8 |
| 20260905113003 | 74 | 0 | 0.0 | 1.0 | 0.00 | 0.00 | 0.00 | 91 | 1014.6 |
| 20260905112503 | 74 | 0 | 0.0 | 1.0 | 0.00 | 0.00 | 0.00 | 90 | 1014.6 |
| 20260905112217 | 74 | 0 | 0.0 | 1.0 | 0.00 | 0.00 | 0.00 | 91 | 1014.5 |
| 20260905111503 | 74 | 0 | 0.0 | 1.0 | 0.00 | 0.00 | 0.00 | 90 | 1014.4 |
| 20260905111004 | 74 | 0 | 0.0 | 1.0 | 0.00 | 0.00 | 0.00 | 90 | 1014.4 |
| 20260905110503 | 74 | 0 | 0.0 | 1.0 | 0.00 | 0.00 | 0.00 | 90 | 1014.2 |
| 20260905110004 | 74 | 0 | 0.0 | 1.0 | 0.00 | 0.00 | 0.00 | 90 | 1014.2 |
| 20260905105503 | 74 | 0 | 0.0 | 1.0 | 0.00 | 0.00 | 0.00 | 90 | 1014.1 |
| 20260905105215 | 74 | 0 | 0.0 | 1.0 | 0.00 | 0.00 | 0.00 | 90 | 1014.1 |
| 20260905104503 | 74 | 0 | 0.0 | 1.0 | 0.00 | 0.00 | 0.00 | 90 | 1014.0 |
| 20260905104216 | 74 | 0 | 0.0 | 1.0 | 0.00 | 0.00 | 0.00 | 90 | 1014.0 |
| 20260905103714 | 74 | 0 | 0.0 | 1.0 | 0.00 | 0.00 | 0.00 | 90 | 1013.9 |
| 20260905103003 | 74 | 0 | 0.0 | 1.0 | 0.00 | 0.00 | 0.00 | 90 | 1013.9 |
| 20260905102503 | 74 | 0 | 0.0 | 1.0 | 0.00 | 0.00 | 0.00 | 90 | 1013.9 |
| 20260905102006 | 74 | 0 | 0.0 | 1.0 | 0.00 | 0.00 | 0.00 | 89 | 1013.9 |
| 20260905101503 | 74 | 0 | 0.0 | 1.0 | 0.00 | 0.00 | 0.00 | 89 | 1014.0 |
| 20260905101003 | 74 | 0 | 0.0 | 2.0 | 0.00 | 0.00 | 0.00 | 89 | 1013.9 |
| 20260905100503 | 74 | 0 | 0.0 | 2.0 | 0.00 | 0.00 | 0.00 | 89 | 1013.9 |
| 20260905100003 | 75 | 0 | 0.0 | 2.0 | 0.00 | 0.00 | 0.00 | 89 | 1013.8 |
| 20260905095503 | 75 | 0 | 0.0 | 1.0 | 0.00 | 0.00 | 0.00 | 89 | 1013.7 |
| 20260905095215 | 75 | 0 | 0.0 | 2.0 | 0.00 | 0.00 | 0.00 | 89 | 1013.7 |
| 20260905094503 | 75 | 0 | 0.0 | 2.0 | 0.00 | 0.00 | 0.00 | 89 | 1013.8 |
| 20260905094216 | 75 | 0 | 0.0 | 2.0 | 0.00 | 0.00 | 0.00 | 89 | 1013.9 |
| 20260905093503 | 75 | 0 | 0.0 | 2.0 | 0.00 | 0.00 | 0.00 | 89 | 1013.8 |
| 20260905093003 | 75 | 0 | 0.0 | 2.0 | 0.00 | 0.00 | 0.00 | 89 | 1013.9 |
| 20260905092503 | 75 | 0 | 0.0 | 1.0 | 0.00 | 0.00 | 0.00 | 89 | 1013.9 |
| 20260905092003 | 75 | 0 | 0.0 | 1.0 | 0.00 | 0.00 | 0.00 | 89 | 1013.8 |
| 20260905091503 | 75 | 0 | 0.0 | 1.0 | 0.00 | 0.00 | 0.00 | 89 | 1013.8 |
| 20260905091003 | 75 | 0 | 0.0 | 1.0 | 0.00 | 0.00 | 0.00 | 89 | 1013.9 |
| 20260905090503 | 75 | 0 | 0.0 | 1.0 | 0.00 | 0.00 | 0.00 | 89 | 1013.9 |
| 20260905090004 | 76 | 0 | 0.0 | 1.0 | 0.00 | 0.00 | 0.00 | 89 | 1014.0 |
| 20260905085713 | 76 | 0 | 0.0 | 1.0 | 0.00 | 0.00 | 0.00 | 88 | 1013.9 |
| 20260905085003 | 76 | 0 | 0.0 | 1.0 | 0.00 | 0.00 | 0.00 | 88 | 1013.9 |
| 20260905084503 | 76 | 0 | 0.0 | 1.0 | 0.00 | 0.00 | 0.00 | 88 | 1014.0 |
| 20260905084006 | 76 | 0 | 0.0 | 1.0 | 0.00 | 0.00 | 0.00 | 88 | 1014.0 |
| 20260905083505 | 76 | 169 | 1.0 | 2.0 | 0.00 | 0.00 | 0.00 | 88 | 1014.1 |
| 20260905083003 | 76 | 0 | 0.0 | 2.0 | 0.00 | 0.00 | 0.00 | 88 | 1014.1 |
| 20260905082503 | 76 | 0 | 0.0 | 2.0 | 0.00 | 0.00 | 0.00 | 88 | 1014.1 |
| 20260905082214 | 76 | 0 | 0.0 | 2.0 | 0.00 | 0.00 | 0.00 | 88 | 1014.1 |
| 20260905081503 | 76 | 0 | 0.0 | 1.0 | 0.00 | 0.00 | 0.00 | 89 | 1014.2 |
| 20260905081003 | 76 | 0 | 0.0 | 1.0 | 0.00 | 0.00 | 0.00 | 88 | 1014.3 |
| 20260905080503 | 76 | 0 | 0.0 | 1.0 | 0.00 | 0.00 | 0.00 | 88 | 1014.2 |
| 20260905080216 | 76 | 0 | 0.0 | 1.0 | 0.00 | 0.00 | 0.00 | 88 | 1014.3 |